Regional Weather Roundup
Issued by NWS Goodland, KS

Home | Current Version | Previous Version | Text Only | Print | Product List | Glossary On
Versions: 1 2 3 4 5 6 7 8 9 10 11 12 13 14 15 16 17 18 19 20 21 22 23 24 25 26 27 28 29 30 31 32 33 34 35 36 37 38 39 40 41 42 43 44 45 46 47 48 49 50
000
ASUS43 KGLD 251208
RWRGLD

GOODLAND FORECAST AREA HOURLY WEATHER ROUNDUP
NATIONAL WEATHER SERVICE GOODLAND KS
600 AM MDT MON JUL 25 2016

...OFFICIAL OBSERVATIONS...

CITY           SKY/WX    TMP DP  RH WIND       PRES   REMARKS
GOODLAND KS    CLEAR     59  57  93 W3        30.19R
HILL CITY KS   RAIN      66  65  96 N5        30.10F FOG
IMPERIAL NEB   CLEAR     60  58  92 S3        30.18R
MCCOOK NEB     PTCLDY    62  60  93 NE5       30.16R FOG
AKRON CO       CLEAR     56  54  93 E7        30.23S
BURLINGTON CO  CLEAR     59  56  89 NE7       30.22S
LIMON CO       CLEAR     50  49  96 N3        30.25S
$$

...UNOFFICIAL OBSERVATIONS...

CITY           SKY/WX    TMP DP  RH WIND       PRES   REMARKS
COLBY KS       CLEAR     64  64 100 CALM      30.18R
LENORA KS        N/A     65  32  29 MISG        N/A
NORTON KS      CLEAR     68  57  68 NE6       30.13S
SHARON SPRINGS   N/A     60  58  94 CALM        N/A
TRIBUNE KS     CLEAR     64  61  88 W3        30.19S
KIT CARSON CO    N/A     59  55  87 CALM        N/A
YUMA CO          N/A     56  55  95 CALM        N/A
$$




USA.gov is the U.S. government's official web portal to all federal, state and local government web resources and services.